Preview of NWS' New Version of Forecast
This preview is not operational and should not be used for support decisions.
Latest weather observations around

Camp Springs / Andrews Air Force Base (KADW)

Using English Units (Switch to International System of Units)
Date/ Time (EST) Wind (mph) Vis. (mi) Weather Sky Cond. Temp (°F) Rel. Humidity Wind Chill (°F) Heat Index (°F) Pressure Precip. (in)
Air Dwpt 6 hour Altimeter (inHg) Sea level (inHg) 1 hr 3 hr 6 hr
Max Min
Dec 14 04:56 Calm 10 Clear CLR 33 31     91%     30.36 30.39      
Dec 14 03:56 Calm 10 Clear CLR 35 32     86%     30.37 30.4      
Dec 14 01:56 Calm 10 Mostly Clear FEW080 38 33     80%     30.38 30.4      
Dec 14 00:56 E 5 10 Cloudy OVC080 40 34     79% 36   30.38 30.4      
Dec 13 23:56 ENE 5 10 Cloudy OVC075 42 34     74% 39   30.38 30.4      
Dec 13 22:56 NE 3 10 Cloudy OVC070 43 34     71% 42   30.38 30.4      
Dec 13 21:56 E 3 10 Cloudy OVC070 43 35     74% 41   30.37 30.4      
Dec 13 20:56 SE 5 10 Cloudy BKN055 OVC070 43 36     75% 40   30.37 30.4      
Dec 13 19:56 E 5 10 Cloudy OVC060 44 35     71% 41   30.36 30.39      
Dec 13 18:56 E 5 10 Cloudy OVC065 44 34     68% 42   30.35 30.37      
Dec 13 17:56 E 6 10 Cloudy OVC060 45 33     63% 42   30.33 30.36      
Dec 13 16:56 E 5 10 Cloudy OVC060 46 33     61% 44   30.32 30.35      
Dec 13 15:56 E 9 10 Partly Cloudy SCT065 48 33     57% 44   30.3 30.32      
Dec 13 14:56 SE 3 10 Clear CLR 51 31     47%     30.29 30.32      
Dec 13 13:56 E 5 10 Clear CLR 51 30     44%     30.27 30.29      
Dec 13 12:56 Calm 10 Clear CLR 50 29     45%     30.27 30.29      
Dec 13 11:56 SE 5 10 Clear CLR 48 30     49% 46   30.28 30.3      
Dec 13 10:56 Calm 10 Mostly Clear FEW080 46 30     54%     30.3 30.33      
Dec 13 09:56 Calm 10 Mostly Clear FEW070 43 30     60%     30.29 30.32      
Dec 13 08:56 Calm 10 Mostly Cloudy BKN070 39 30     70%     30.28 30.31      
Dec 13 07:56 SE 3 10 Cloudy OVC065 38 29     72% 35   30.25 30.28      
Dec 13 06:56 SSE 3 10 Cloudy OVC065 37 29     73% 35   30.23 30.26      
Dec 13 05:56 SSE 3 10 Cloudy OVC070 37 29     73% 34   30.21 30.24      
Dec 13 04:56 SSE 5 10 Cloudy OVC080 37 29     73% 33   30.19 30.22      
Dec 13 03:56 SE 5 10 Mostly Cloudy BKN060 37 29     72% 34   30.19 30.22      
Dec 13 02:56 SSE 6 10 Cloudy OVC060 38 29     70% 33   30.18 30.21      
Dec 13 01:56 S 7 10 Cloudy OVC060 38 28     68% 32   30.18 30.21      
Dec 13 00:56 SSE 8 10 Cloudy OVC060 37 28     69% 31   30.17 30.19      
Dec 12 23:56 SSE 6 10 Cloudy OVC060 36 27     69% 31   30.18 30.21      
Dec 12 22:56 SSE 7 10 Clear CLR 34 26     74% 28   30.18 30.21      
Dec 12 21:56 SE 9 10 Clear CLR 34 27     74% 27   30.17 30.2      
Dec 12 20:56 SE 6 10 Clear CLR 35 25     69% 29   30.18 30.21      
Dec 12 19:56 SE 6 10 Clear CLR 36 24     61% 31   30.17 30.2      
Dec 12 18:56 SSE 9 10 Partly Cloudy SCT085 37 24     59% 31   30.17 30.2      
Dec 12 17:56 S 5 10 Mostly Clear FEW130 38 24     55% 35   30.17 30.2      
Dec 12 16:56 S 6 10 Partly Cloudy SCT150 41 25     53% 37   30.16 30.19      
Dec 12 15:56 SSW 5 10 Clear CLR 43 24     47% 40   30.16 30.19      
Dec 12 14:56 SSW 7 10 Clear CLR 44 23     44% 40   30.14 30.17      
Dec 12 13:56 WNW 3 10 Mostly Clear FEW200 45 23     41% 44   30.13 30.16      
Dec 12 12:56 N 5 10 Mostly Clear FEW180 FEW200 45 24     42% 43   30.14 30.17      
Dec 12 11:56 W 7 10 Clear CLR 44 23     42% 40   30.17 30.2      
Dec 12 09:56 NNW 3 10 Clear CLR 41 23     49% 39   30.21 30.24      
Dec 12 08:56 W 5 10 Clear CLR 37 23     57% 33   30.2 30.23      
Dec 12 07:56 Calm 10 Mostly Clear FEW047 29 20     69%     30.17 30.2      
Dec 12 06:56 Calm 10 Mostly Cloudy BKN049 31 20     64%     30.15 30.18      
Dec 12 05:56 WSW 6 10 Mostly Cloudy BKN050 33 21     60% 28   30.13 30.16      
Dec 12 04:56 WSW 6 10 Cloudy OVC050 33 19     56% 28   30.11 30.14      
Dec 12 03:56 WSW 5 10 Mostly Cloudy BKN055 26 19     74% 20   30.09 30.12      
Dec 12 02:56 Calm 10 Clear CLR 25 19     77%     30.07 30.1      
Dec 12 01:56 SW 3 10 Mostly Clear FEW060 28 21     73% 25   30.06 30.09      
Dec 12 00:56 Calm 10 Cloudy OVC060 28 23     81%     30.05 30.08      
Dec 11 23:56 Calm 10 Partly Cloudy SCT060 27 20     74%     30.06 30.09      
Dec 11 22:56 W 5 10 Clear CLR 31 20     64% 27   30.05 30.08      
Dec 11 21:56 W 7 10 Clear CLR 32 22     65% 26   30.03 30.06      
Dec 11 20:56 W 6 10 Clear CLR 32 22     64% 27   30.02 30.05      
Dec 11 19:56 SW 5 10 Clear CLR 31 20     66% 26   30.01 30.04      
Dec 11 18:56 SSW 5 10 Clear CLR 33 21     62% 28   30.01 30.04      
Dec 11 17:56 S 7 10 Clear CLR 34 20     57% 28   30.02 30.05      
Dec 11 16:56 SW 5 10 Clear CLR 38 20     48% 34   30.01 30.04      
Dec 11 15:56 WSW 7 10 Clear CLR 42 19     39% 38   30.02 30.05      
Dec 11 14:56 W 7 10 Clear CLR 45 18     34% 41   30.02 30.05      
Dec 11 13:56 WNW 6 10 Clear CLR 43 17     35% 40   30.03 30.06      
Dec 11 12:56 WNW 8 10 Clear CLR 42 18     39% 36   30.07 30.1      
Dec 11 11:56 NW 9 10 Clear CLR 40 19     43% 33   30.11 30.14      
Dec 11 10:56 Calm 10 Clear CLR 38 23     54%     30.14 30.17      
Dec 11 09:56 Calm 10 Clear CLR 34 23     63%     30.16 30.19      
Dec 11 08:56 NNW 3 10 Clear CLR 30 23     75% 27   30.16 30.19      
Dec 11 07:56 Calm 10 Clear CLR 22 18     85%     30.16 30.19      
Dec 11 06:56 Calm 10 Clear CLR 21 18     86%     30.16 30.19      
Dec 10 21:56 NNW 5 10 Clear CLR 26 20     79% 20   30.18 30.21      
Dec 10 20:56 NNW 5 10 Clear CLR 26 20     79% 20   30.18 30.21      
Dec 10 19:56 N 3 10 Clear CLR 27 21     76% 24   30.17 30.2      
Dec 10 18:56 N 5 10 Clear CLR 29 21     71% 24   30.16 30.19     0
Dec 10 17:56 NNE 5 10 Clear CLR 30 21     69% 25   30.14 30.17      
Dec 10 16:56 N 8 10 Clear CLR 32 22     66% 25   30.12 30.15      
Dec 10 15:56 N 9 10 Clear CLR 37 22     54% 30   30.11 30.14   0  
Dec 10 14:56 N 13 10 Clear CLR 38 21     50% 30   30.1 30.13 0    
Dec 10 13:56 N 9 8 Clear CLR 37 21     52% 30   30.11 30.14 0    
Dec 10 12:56 N 11 10 Mostly Clear FEW210 37 21     52% 29   30.12 30.15      
Dec 10 11:56 N 9 10 Partly Cloudy SCT200 36 21     54% 29   30.14 30.17      
Dec 10 10:56 NNW 8 10 Mostly Clear FEW200 32 19     59% 25   30.16 30.19      
Dec 10 09:56 N 9 10 Clear CLR 30 18     62% 21   30.18 30.21      
Dec 10 08:56 N 14 10 Mostly Clear FEW200 29 17     61% 19   30.15 30.18      
Dec 10 07:56 N 11 10 Mostly Clear FEW190 28 17     62% 19   30.12 30.15      
Dec 10 06:56 N 10 10 Clear CLR 26 16     65% 17   30.11 30.14      
Dec 10 05:56 N 8 10 Cloudy OVC190 29 16     59% 21   30.09 30.12      
Dec 10 04:56 N 8 10 Mostly Cloudy BKN180 29 17     59% 22   30.07 30.1      
Dec 10 03:56 N 8 10 Cloudy OVC180 28 17     62% 20   30.06 30.09      
Dec 10 02:56 NNW 6 10 Mostly Cloudy FEW140 BKN180 29 17     61% 23   30.08 30.11      
Dec 10 01:56 N 9 10 Mostly Cloudy BKN180 29 17     61% 21   30.07 30.1      
Dec 10 00:56 N 10 10 Mostly Clear FEW180 29 17     60% 20   30.09 30.12      
Dec 09 23:56 N 7 10 Clear CLR 31 18     59% 24   30.09 30.12      
Dec 09 22:56 N 10 10 Clear CLR 31 18     57% 23   30.12 30.15      
Dec 09 21:56 N 9 10 Mostly Clear FEW036 32 18     56% 24   30.14 30.17      
Dec 09 20:56 NNE 10 10 Partly Cloudy SCT036 32 18     55% 24   30.16 30.19      
Dec 09 19:56 NNE 11 10 Cloudy OVC034 32 18     56% 23   30.18 30.21      
Dec 09 18:56 NNE 11 10 Cloudy OVC032 32 19     58% 23   30.21 30.24 0   0
Dec 09 18:02 NNE 9 10 Partly Cloudy SCT020 32 19     59% 24   30.22 30.25      
Dec 09 18:01 NNE 9 10 Partly Cloudy SCT020 32 19     59% 24   30.22 30.25      
Dec 09 17:56 NNE 8 10 Mostly Cloudy BKN020 32 19     60% 24   30.24 30.27 0    
Dec 09 17:32 NNE 7 10 Mostly Cloudy BKN020 32 19     59% 26   30.25 30.28      
Dec 09 17:31 NE 7 10 Mostly Cloudy BKN020 32 19     59% 26   30.25 30.28      
Dec 09 16:56 NNE 7 10 Clear CLR 32 19     59% 25   30.25 30.28      
Dec 09 15:56 NNE 8 10 Clear CLR 32 19     59% 25   30.26 30.29      
Dec 09 14:56 NNE 9 10 Clear CLR 32 20     60% 24   30.27 30.3      
Dec 09 13:56 N 9 10 Clear CLR 32 19     59% 24   30.3 30.33      
Dec 09 12:56 NNE 8 10 Mostly Cloudy BKN034 32 20     60% 25   30.33 30.36      
Dec 09 11:56 NNE 9 10 Clear CLR 32 20     61% 24   30.35 30.38      
Dec 09 10:56 NNE 7 10 Clear CLR 31 19     61% 25   30.41 30.44      
Dec 09 09:56 NE 5 10 Clear CLR 31 19     61% 26   30.42 30.45      
Dec 09 08:56 NNE 6 10 Clear CLR 30 19     63% 24   30.44 30.47      
Dec 09 07:56 N 3 10 Clear CLR 29 20     68% 25   30.46 30.49      
Dec 09 06:56 N 5 10 Clear CLR 29 19     68% 23   30.46 30.49      
Dec 09 05:56 NNE 6 10 Clear CLR 29 18     64% 23   30.46 30.49      
Dec 09 04:56 NNE 3 10 Clear CLR 28 19     68% 24   30.48 30.51      
Dec 09 03:56 NNE 5 10 Clear CLR 28 19     68% 23   30.49 30.52      
Dec 09 02:56 NNE 6 10 Clear CLR 29 18     63% 23   30.5 30.53      
Dec 09 01:56 NNE 6 10 Clear CLR 29 18     63% 23   30.51 30.54      
Dec 09 00:56 NNE 6 10 Clear CLR 29 18     63% 23   30.53 30.56      
Dec 08 23:56 N 6 10 Clear CLR 29 19     65% 23   30.55 30.58      
Dec 08 22:56 N 7 10 Clear CLR 27 19     71% 20   30.54 30.57      
Dec 08 21:56 N 6 10 Clear CLR 29 19     66% 22   30.56 30.59      
Dec 08 20:56 N 5 10 Clear CLR 29 18     63% 24   30.55 30.58      
Dec 08 19:56 NNW 5 10 Clear CLR 31 16     54% 26   30.54 30.57      
Dec 08 18:56 NNW 3 10 Clear CLR 31 17     57% 27   30.53 30.56      
Dec 08 17:56 NNW 8 10 Clear CLR 33 15     48% 26   30.53 30.56      
Dec 08 16:56 NNW 6 10 Clear CLR 33 15     46% 28   30.51 30.54      
Dec 08 15:56 NW 8 10 Clear CLR 35 15     43% 28   30.5 30.53      
Dec 08 14:56 WNW 10 10 Clear CLR 35 15     42% 28   30.49 30.52      
Dec 08 13:56 NW 14 10 Clear CLR 35 14     42% 26   30.49 30.52      
Dec 08 12:56 NW 10 10 Clear CLR 37 13     37% 29   30.49 30.52      
Dec 08 11:56 NW 13 10 Clear   37 16     42% 28   30.51 30.54      
Dec 08 10:56 WNW 10 10 Clear CLR 36 18     48% 29   30.55 30.58      
Dec 08 09:56 W 6 10 Partly Cloudy FEW140 SCT200 32 20     60% 27   30.56 30.59      
Dec 08 08:56 Calm 10 Clear CLR 26 22     85%     30.53 30.56      
Dec 08 07:56 Calm 10 Clear CLR 23 18     80%     30.5 30.53      
Dec 08 06:56 Calm 10 Clear CLR 23 17     79%     30.5 30.53      
Dec 08 05:56 Calm 10 Clear CLR 22 17     83%     30.49 30.52      
Dec 08 04:56 Calm 10 Clear CLR 21 17     84%     30.48 30.51      
Dec 08 03:56 Calm 10 Clear CLR 21 17     85%     30.47 30.5      
Dec 08 02:56 Calm 10 Clear CLR 22 18     84%     30.47 30.5      
Dec 08 01:56 Calm 10 Clear CLR 22 17     81%     30.47 30.5      
Dec 08 00:56 Calm 10 Clear CLR 23 18     81%     30.45 30.48      
Dec 07 23:56 Calm 10 Clear CLR 27 17     64%     30.45 30.48      
Dec 07 22:56 NNE 3 10 Clear CLR 24 17     74% 19   30.47 30.5      
Dec 07 21:56 Calm 10 Clear CLR 24 18     76%     30.46 30.49      
Dec 07 20:56 NE 3 10 Clear CLR 29 17     60% 25   30.44 30.47      
Dec 07 18:56 N 6 10 Clear CLR 29 18     63% 22   30.44 30.47      
Dec 07 17:56 NNW 6 10 Clear CLR 34 16     48% 28   30.43 30.46      
Dec 07 16:56 NW 11 10 Clear CLR 37 15     41% 29   30.42 30.45      
Dec 07 15:56 NW 11 10 Clear CLR 38 15     39% 31   30.39 30.42      
Dec 07 14:56 WNW 13 10 Clear CLR 41 16     36% 33   30.39 30.42      
Dec 07 13:56 WNW 8 10 Clear CLR 41 16     36% 36   30.39 30.42      
Dec 07 12:56 W 16 10 Clear CLR 41 16     36% 33   30.4 30.43      
Dec 07 11:56 NNW 14 10 Clear CLR 40 17     38% 33   30.41 30.44      
Dec 07 10:56 NW 13 10 Clear CLR 39 18     42% 31   30.43 30.46      
Dec 07 09:56 NNW 14 10 Clear CLR 38        % 30   30.44 30.47      
Dec 07 08:56 N 11 10 Clear CLR 37        % 29   30.41 30.44      
Dec 07 07:56 NW 8 10 Clear CLR 35 23     63% 28   30.38 30.41      
Dec 07 06:56 NNW 9 10 Clear CLR 31 24     73% 23   30.35 30.38      
Dec 07 05:56 WNW 5 10 Clear CLR 31 23     71% 26   30.32 30.35      
Dec 07 04:56 W 7 10 Clear CLR 34 22     62% 28   30.29 30.32      
Dec 07 02:56 SSW 5 10 Partly Cloudy SCT110 35 24     64% 31   30.26 30.29      
Dec 07 01:56 SW 3 10 Cloudy OVC110 36 25     64% 33   30.25 30.28      
Dec 07 00:56 WSW 6 10 Clear CLR 36 24     61% 31   30.23 30.26      
Dec 06 23:56 WSW 6 10 Cloudy SCT090 BKN110 OVC160 38 23     54% 34   30.22 30.24      
Dec 06 22:56 SW 7 10 Mostly Clear FEW100 39 23     52% 34   30.22 30.24      
Dec 06 21:56 SSW 10 10 Partly Cloudy SCT100 39 23     52% 32   30.22 30.24      
Dec 06 20:56 SSW 11 10 Mostly Cloudy BKN100 39 22     51% 32   30.22 30.25      
Dec 06 19:56 SSW 9 10 Partly Cloudy SCT110 39 22     49% 33   30.23 30.26      
Dec 06 18:56 SSW 9 10 Partly Cloudy SCT120 39 22     50% 33   30.23 30.26      
Dec 06 17:56 SW 7 10 Clear CLR 40 22     47% 35   30.24 30.27      
Dec 06 16:56 SSW 7 10 Clear CLR 40 22     48% 35   30.23 30.26      
Dec 06 15:56 SSW 9 10 Mostly Clear FEW120 40 20     44% 35   30.24 30.27      
Dec 06 14:56 WSW 8 10 Clear CLR 41 20     43% 36   30.23 30.26      
Dec 06 13:56 WSW 11 10 Clear CLR 43 21     41% 37   30.24 30.27      
Dec 06 12:56 WSW 9 10 Clear CLR 42 20     42% 36   30.25 30.28      
Dec 06 11:56 W 11 10 Cloudy OVC047 40 20     45% 33   30.28 30.31      
Dec 06 10:56 W 9 10 Clear CLR 41 22     46% 35   30.3 30.33      
Dec 06 09:56 SW 6 10 Clear CLR 38 23     54% 34   30.33 30.36      
Dec 06 08:56 SSW 5 10 Clear CLR 34 24     68% 30   30.32 30.35      
Dec 06 07:56 WSW 5 10 Cloudy OVC047 34 21     57% 30   30.3 30.33      
Dec 06 06:56 W 8 10 Cloudy BKN048 OVC220 33 21     62% 26   30.28 30.31      
Dec 06 05:56 W 6 10 Mostly Cloudy BKN048 32 23     70% 26   30.28 30.31      
Dec 06 04:56 WSW 5 10 Cloudy OVC046 32 23     69% 28   30.26 30.29      
Dec 06 03:56 WSW 5 10 Cloudy OVC048 31 23     72% 27   30.24 30.27      
Dec 06 02:56 SW 5 10 Cloudy OVC049 30 23     75% 25   30.24 30.27      
Dec 06 01:56 W 6 10 Mostly Clear FEW055 28 21     75% 22   30.23 30.26      
Dec 06 00:56 WSW 5 10 Clear CLR 28 22     79% 23   30.22 30.25      
Dec 05 23:56 W 7 10 Clear CLR 29 24     82% 22   30.22 30.25      
Dec 05 22:56 W 6 10 Clear CLR 30 24     78% 24   30.2 30.23      
Dec 05 21:56 Calm 10 Clear CLR 32 24     72%     30.19 30.22      
Dec 05 20:56 WNW 8 10 Clear CLR 33 24     69% 26   30.18 30.21      
Dec 05 19:56 WNW 8 10 Clear CLR 34 23     64% 27   30.15 30.18      
Dec 05 18:56 NW 6 10 Mostly Cloudy BKN075 34 23     62% 29   30.14 30.17      
Dec 05 17:56 NW 8 10 Cloudy SCT050 OVC140 35 22     59% 29   30.12 30.15      
Dec 05 16:56 WNW 8 10 Mostly Clear FEW065 35 21     56% 29   30.1 30.13      
Dec 05 15:56 NW 10 10 Clear CLR 37 21     52% 29   30.08 30.11      
Dec 05 14:56 NW 10 10 Clear CLR 38 21     49% 31   30.06 30.09      
Dec 05 13:56 NW 8 10 Mostly Clear FEW140 FEW180 37 22     53% 31   30.05 30.08      
Dec 05 12:56 W 8 10 Partly Cloudy FEW140 FEW180 SCT200 36 21     54% 29   30.05 30.08      
Dec 05 11:56 W 5 10 Mostly Cloudy BKN075 BKN220 35 21     57% 31   30.06 30.09      
Dec 05 10:56 NW 6 10 Mostly Cloudy BKN037 BKN190 34 22     62% 29   30.08 30.11      
Dec 05 09:56 N 3 10 Cloudy OVC075 32 23     68% 29   30.07 30.1      
Dec 05 08:56 NNE 3 10 Cloudy OVC075 31 23     70% 28   30.07 30.1      
Dec 05 07:56 NNE 5 10 Cloudy OVC100 30 23     74% 25   30.07 30.1      
Dec 05 06:56 NNE 6 10 Mostly Cloudy BKN080 28 22     78% 22   30.06 30.09      
Dec 05 05:56 NNE 5 10 Mostly Cloudy FEW080 BKN120 28 22     80% 22   30.05 30.08      
Dec 05 04:56 NNE 6 10 Mostly Cloudy BKN120 28 21     76% 22   30.05 30.08      
Dec 05 03:56 NNE 6 10 Mostly Cloudy BKN120 30 23     75% 24   30.05 30.08      
Dec 05 02:56 NNE 7 10 Cloudy OVC050 31 24     73% 25   30.06 30.09      
Dec 05 01:56 N 5 10 Cloudy SCT050 OVC120 31 24     74% 27   30.06 30.09      
Dec 05 00:56 NW 7 10 Cloudy BKN070 OVC120 34 22     62% 27   30.06 30.09      
Dec 04 23:56 NW 5 10 Mostly Cloudy BKN070 BKN120 30 22     74% 25   30.08 30.11      
Dec 04 22:56 NNW 6 10 Mostly Cloudy BKN065 32 22     67% 26   30.08 30.11      
Dec 04 21:56 NNW 6 10 Clear CLR 34 22     59% 29   30.08 30.11      
Dec 04 20:56 NW 9 10 Mostly Cloudy BKN050 37 22     54% 30   30.08 30.11      
Dec 04 19:56 NW 10 10 Cloudy OVC050 38 22     53% 31   30.07 30.1      
Dec 04 18:56 W 6 10 Cloudy OVC050 37 22     54% 33   30.07 30.1      
Dec 04 17:56 W 5 10 Mostly Cloudy BKN049 37 20     50% 33   30.05 30.08      
Dec 04 16:56 NW 7 10 Cloudy OVC047 38 20     48% 33   30.03 30.06      
Dec 04 15:56 NW 8 10 Cloudy OVC043 40 23     51% 34   30.02 30.05      
Dec 04 14:56 NW 9 10 Cloudy OVC044 40 23     50% 34   30.01 30.03      
Dec 04 13:56 NNW 13 10 Cloudy OVC046 41 22     48% 33   30.02 30.04      
Dec 04 12:56 NW 11 10 Cloudy OVC047 42 23     47% 35   30.03 30.06      
Dec 04 11:56 NW 10 10 Cloudy OVC043 41 25     52% 35   30.04 30.06      
Dec 04 10:56 N 14 10 Cloudy OVC045 42 24     49% 35   30.05 30.07      
Dec 04 10:22 NNW 11 10 Cloudy OVC043 41 25     52% 34   30.06 30.09      
Dec 04 09:56 NNW 14 10 Cloudy OVC042 41 26     54% 33   30.05 30.07      
Dec 04 08:56 NW 8 10 Cloudy BKN038 OVC045 40 28     60% 35   30.03 30.06      
Dec 04 07:56 WNW 6 10 Cloudy OVC042 40 28     62% 36   30.01 30.03      
Dec 04 06:56 WNW 8 10 Cloudy OVC040 40 28     62% 34   29.99 30.01      
Dec 04 05:56 Calm 10 Mostly Cloudy BKN039 39 27     61%     29.97 29.99      
Dec 04 04:56 WNW 7 10 Mostly Cloudy BKN038 40 28     62% 35   29.94 29.96      
Dec 04 03:56 WNW 14 10 Mostly Clear FEW037 40 28     61% 33   29.92 29.94      
Dec 04 02:56   10 Clear CLR 42 31     64%     29.9 29.92      
Dec 04 01:56 NW 10 10 Clear CLR 42 33     69% 36   29.87 29.89      
Dec 04 00:56 W 8 10 Clear CLR 44 33     64% 40   29.86 29.88      
Dec 03 23:56 WNW 10 10 Clear CLR 45 32     59% 40   29.86 29.88      
Dec 03 22:56 WNW 14 10 Clear CLR 46 31     55% 40   29.85 29.87      
Dec 03 21:56 NW 6 10 Clear CLR 45 30     56% 42   29.83 29.85      
Dec 03 20:56 WNW 8 10 Mostly Clear FEW060 46 30     53% 42   29.83 29.85      
Dec 03 19:56 WNW 8 10 Mostly Clear FEW060 47 30     51% 43   29.83 29.85      
Dec 03 18:56 NW 16 10 Clear CLR 48 32     53% 42   29.83 29.85      
Dec 03 17:56 NW 14 10 Clear CLR 49 36     59% 44   29.81 29.83      
Dec 03 16:56 NNW 9 10 Clear CLR 52 36     56%     29.78 29.8      
Dec 03 15:56 NNW 15 10 Clear CLR 54 37     53%     29.75 29.77      
Dec 03 14:56 NNW 14 10 Clear CLR 57 37     47%     29.72 29.74      
Dec 03 13:56 WNW 10 10 Clear CLR 59 35     41%     29.71 29.73      
Dec 03 12:56 NW 9 10 Clear CLR 59 37     44%     29.71 29.73      
Dec 03 11:56 NW 11 10 Clear CLR 58 38     48%     29.73 29.75      
Dec 03 11:37 W 13 10 Clear CLR 57 39     51%     29.74 29.76      
Dec 03 10:56 W 11 10 Clear CLR 57 40     53%     29.75 29.77      
Dec 03 09:56 WNW 8 10 Clear CLR 55 42     62%     29.75 29.77      
Dec 03 08:56 W 8 10 Clear CLR 53 43     67%     29.74 29.76      
Dec 03 07:56 S 8 10 Clear CLR 49 44     82% 46   29.73 29.75      
Dec 03 06:56 W 7 10 Clear CLR 52 46     81%     29.69 29.71      
Dec 03 05:56 WNW 13 10 Clear CLR 54 50     88%     29.68 29.7      
Dec 03 04:56 SW 14 10 Clear CLR 54 52     91%     29.66 29.68      
Dec 03 03:56 SW 11 10 Clear CLR 55 53     92%     29.65 29.67      
Dec 03 02:56 SW 9 10 Clear CLR 55 53     94%     29.64 29.66      
Dec 03 01:56 SSW 10 10 Clear CLR 55 53     93%     29.64        
Dec 03 00:56 SW 13 10 Clear CLR 57 55     94%     29.63        
Dec 03 00:06 SW 15 10 Partly Cloudy SCT007 57 57     100%     29.62        
Dec 03 00:01   10 Mostly Cloudy BKN007 57 57     100%     29.62        
Dec 02 23:56 SW 14 10 Mostly Cloudy BKN006 58 57     96%     29.62        
Dec 02 22:56 SSW 14 10 Cloudy OVC006 59 58     97%     29.62        
Dec 02 21:56 SSW 13 10 Cloudy OVC006 58 58     98%     29.62        
Dec 02 21:54 SSW 13 10 Cloudy OVC006 59 57     94%     29.62        
Dec 02 21:24 SSW 10 10 Cloudy OVC005 57 57     100%     29.63        
Dec 02 21:06 SSW 10 10 Cloudy OVC006 57 57     100%     29.63        
Dec 02 20:56 SSW 9 10 Cloudy OVC005 58 57     98%     29.63        
Dec 02 19:56 SW 9 10 Cloudy OVC005 57 57     98%     29.63        
Dec 02 19:25 SW 13 10 Cloudy OVC005 57 57     100%     29.63        
Dec 02 18:56 SSW 13 10 Cloudy OVC006 57 56     97%     29.63        
Dec 02 18:21 SSW 11 10 Cloudy OVC006 57 55     94%     29.62        
Dec 02 18:06 SSW 13 10 Cloudy OVC007 55 55     100%     29.62        
Dec 02 17:56 SSW 13 10 Cloudy BKN005 OVC014 56 55     99%     29.62        
Dec 02 17:51 SSW 13 10 Cloudy BKN005 OVC014 55 55     100%     29.62        
Dec 02 17:41 S 15 10 Cloudy OVC004 55 55     100%     29.62        
Dec 02 17:16 S 13 5 Fog/Mist OVC003 55 54     94%     29.61        
Dec 02 16:56 S 9 8 Cloudy OVC004 54 54     99%     29.62        
Dec 02 16:06 S 13 4 Fog/Mist OVC004 55 55     100%     29.63        
Dec 02 15:56 S 9 4 Fog/Mist OVC005 55 54     97%     29.62        
Dec 02 15:38 SSW 11 10 Cloudy OVC005 55 55     100%     29.63        
Dec 02 14:56 SSW 14 7 Cloudy SCT006 OVC008 57 54     91%     29.65 29.65      
Dec 02 14:13 2 10 Mostly Cloudy SCT005 BKN008 BKN010 57 54     88%     29.66 29.66      
Dec 02 13:55 3 10 Mostly Cloudy SCT004 BKN006 BKN008 56 53     91%     29.67 29.67      
Dec 02 13:25 2 7 Mostly Cloudy SCT002 BKN004 55 54     94%     29.69 29.68      
Dec 02 12:55 1 3 Fog/Mist SCT001 OVC003 52 51     95%     29.7 29.7      
Dec 02 11:55 2 2.5 Fog/Mist OVC002 50 49     97%     29.73 29.73      
Dec 02 10:55 1 2.5 Fog/Mist OVC002 49 48     97%     29.76 29.76      
Dec 02 10:42 1 2.5 Fog/Mist BKN001 OVC003 48 48     100%     29.76 29.76      
Dec 02 10:28 SW 1 1.5 Fog/Mist BKN001 OVC003 48 48     100%     29.75 29.76      
Dec 02 09:55 1 0.5 Fog VV002 47 47     99%     29.77 29.77      
Dec 02 08:55 1 0.25 Fog VV002 46 46     99%     29.76 29.77      
Dec 02 08:43 1 0.5 Fog VV002 46 46     100%     29.76 29.76      
Dec 02 07:56 7 0.5 Fog OVC002 50 50     100%     29.74        
Dec 02 06:56 7 3 Fog/Mist OVC004 50 50     100%     29.78        
Dec 02 05:56 7 1.5 Fog/Mist OVC002 48 48     100% 45   29.79        
Notice The following observation data may not be complete
Dec 02 04:56   1.5 Fog/Mist OVC002          %              
Dec 02 03:56 7 1.5 Fog/Mist OVC002 45 45     100% 41            
May 14 21:08 SE 13 10 Light Rain OVC032 66 64     94%     29.94 29.96      
May 14 20:01 NNE 9 3 Heavy Rain and Fog/Mist OVC023 66 64     94%     29.99 30.01      
May 14 19:52   4 Heavy Rain and Fog/Mist OVC018 66 64     94%     29.99 30.01      
May 14 19:39 NNW 14 1.88 Thunderstorms and Heavy Rain and Fog/Mist OVC012 66 64     94%     30 30.02      
May 14 19:12   8 Thunderstorms and Heavy Rain FEW004 72 66     83%   72 29.98 30      
May 14 18:57 ESE 6 10 Light Rain FEW120 72 68     88%   73 29.93 29.95      
May 13 19:58 E 7 10 Cloudy OVC005 61 59     94%     30.02 30.04      
May 13 13:30 E 11 10 Clear   66 64     94%     30.06 30.08      
May 13 09:56 ENE 7 10 Cloudy OVC005 65 65     98%     30.09 30.11 0    
May 13 07:17 NE 3 10 Mostly Cloudy BKN003 63 63     100%     30.06 30.07      
May 13 07:16 ENE 5 10 Light Rain BKN003 63 63     100%     30.06 30.07      
May 13 05:26   5 Heavy Rain and Fog/Mist OVC006 64 63     94%     30.09 30.1      
May 12 20:56   10 Thunderstorms and Rain FEW090 75 68     81%   76   29.98 0    
May 12 08:56 ENE 5 10 Clear   69 62     78%     30.07 30.09      
May 11 20:56 ESE 6 10 Mostly Clear FEW080 71 53     54%   70 30.04 30.06      
Jun 11 17:58 SW 11 10 Clear   90 62     38%   91 30.07 30.08      
Jun 11 15:58 SSW 11 10 Clear CLR 92 58     33%   91 30.09 30.1      
Jun 09 00:58 Calm 10 Clear CLR 53 50     88%     29.82 29.84      
Notice The following observation data may not be complete
Jun 08 01:58   10 Clear CLR          %              
Jun 07 23:58 N 5 10 Clear CLR 53 50     88%     30.04 30.06      
Notice The following observation data may not be complete
Jun 07 18:58   10 Cloudy OVC038          %              
Jun 07 16:18 ENE 8 10 Mostly Cloudy BKN029 BKN200 64 54     68%     29.99 30.01      
Jun 07 15:48 ENE 11 10 Mostly Cloudy SCT023 BKN031 BKN160 64 54     68%     29.99 30.01      
Notice The following observation data may not be complete
Jun 07 13:23   10 Mostly Cloudy FEW022 BKN030          %              
Jun 07 11:13 E 9 10 Cloudy OVC014 61 55     82%     29.97 29.99      
Jun 07 09:18 E 9 10 Cloudy BKN014 OVC024 61 55     82%     29.95 29.97      
Jun 06 04:19 W 6 1.25 Fog/Mist SCT001 64 64     100%     29.66 29.67      
Jun 06 04:17 W 6 0.75 Fog/Mist VV001 64 64     100%     29.66 29.67      
Jun 06 01:10 Calm 1.25 Fog/Mist FEW041 63 63     100%     29.68 29.7      
Jun 06 00:57 Calm 0.75 Fog/Mist FEW065 63 63     100%     29.69 29.7